Regional Weather Roundup
Issued by NWS

Home | Current Version | Previous Version | Text Only | Print | Product List | Glossary Off
Versions: 1 2 3 4 5 6 7 8 9 10 11 12 13 14 15 16 17 18 19 20 21 22 23 24 25 26 27 28 29 30 31 32 33 34 35 36 37 38 39 40 41 42 43 44 45 46 47 48 49 50

001
ASUS43 KLSX 282159
RWRMO

WEATHER SUMMARY FOR MISSOURI
NATIONAL WEATHER SERVICE SPRINGFIELD MO
500 PM CDT TUE MAR 28 2017

NOTE: "FAIR" INDICATES FEW OR NO CLOUDS BELOW 12,000 FEET WITH NO
       SIGNIFICANT WEATHER AND/OR OBSTRUCTIONS TO VISIBILITY.
       CURRENT SKY AND/OR WEATHER CONDITIONS ARE NOT AVAILABLE FOR
       CHILLICOTHE AND FARMINGTON.

MOZ001>031-035>038-043-044-053-054-282300-
...NORTHERN AND WESTERN MISSOURI...

CITY           SKY/WX    TMP DP  RH WIND       PRES   REMARKS
KANSAS CTY INT CLOUDY    53  49  86 E12       30.01F
KANSAS C DTWN  CLOUDY    55  50  83 E14       29.99F
LEE`S SUMMIT   CLOUDY    53  51  93 E12       30.00F
ST JOSEPH      CLOUDY    53  48  83 E12       30.02F
CHILLICOTHE      N/A     55  49  80 VRB7      30.06F
KIRKSVILLE     CLOUDY    53  48  83 NE8       30.08R

$$
MOZ066>068-077>081-088>096-101>105-282300-
...SOUTHWEST MISSOURI...

CITY           SKY/WX    TMP DP  RH WIND       PRES   REMARKS
SPRINGFIELD    SUNNY     68  50  52 E12       29.91F
JOPLIN         SUNNY     67  53  61 E12       29.89F
BRANSON        MOSUNNY   68  54  60 E6        29.92F

$$
MOZ032>034-039>042-045>050-055>058-069>072-282300-
...CENTRAL MISSOURI...

CITY           SKY/WX    TMP DP  RH WIND       PRES   REMARKS
COLUMBIA       CLOUDY    58  51  78 E7        30.03S
JEFFERSON CITY CLOUDY    60  50  69 E9        30.03S
ROLLA          CLOUDY    56  50  80 NE12G17   30.02S
SEDALIA        CLOUDY    57  51  80 E12       30.03F
WARRENSBURG    CLOUDY    54  50  87 NE13      30.01F
OSAGE BEACH    CLOUDY    60  50  69 E9        30.01F

$$
MOZ051-052-059>065-282300-
...EAST CENTRAL MISSOURI...

CITY           SKY/WX    TMP DP  RH WIND       PRES   REMARKS
ST LOUIS INTL  CLOUDY    59  48  67 E7        30.06S
SPIRIT OF STL  CLOUDY    57  50  77 NE7       30.05S
ST CHARLES     CLOUDY    58  50  75 E6        30.06S

$$
MOZ072>076-082>087-097>100-106>115-282300-
...SOUTH CENTRAL AND SOUTHEAST MISSOURI...

CITY           SKY/WX    TMP DP  RH WIND       PRES   REMARKS
CAPE GIRARDEAU CLOUDY    60  50  69 NE9       30.03F
FARMINGTON     CLOUDY    57  49  74 NE7       30.04F
POPLAR BLUFF   SUNNY     63  52  67 NE9       30.00F
WEST PLAINS    MOSUNNY   67  50  54 E9        29.97F

$$




USA.gov is the U.S. government's official web portal to all federal, state and local government web resources and services.